Home   Weather   Larvik   Past weeks

Flag for Norway Past Weather in Larvik, Norway — Yesterday and Last 2 Weeks

Now
39 °F

Drizzle. Fog.


Feels Like: 31 °F
Forecast: 41 / 49 °F
Wind: 15 mph from Southwest

Location: Torp

Current Time: Dec 7, 2016 at 11:42:19 am

Latest Report: Dec 7, 2016 at 10:50 am


Visibility: 3 mi

Pressure: 30.07 "Hg

Humidity: 100%

Dew Point: 39 °F

Location of LarvikLocation

Past Weather in Larvik — Graph

°F

Larvik Temperature Yesterday

Maximum temperature yesterday: 37 °F (at 12:50 am)
Minimum temperature yesterday: 30 °F (at 5:50 am)
Average temperature yesterday: 34 °F

High & Low Weather Summary for the Past Weeks

 TemperatureHumidityPressure
High50 °F (Dec 5, 12:20 pm)100% (Nov 22, 10:20 am)30.45 "Hg (Nov 22, 10:20 am)
Low25 °F (Nov 29, 7:20 am)39% (Nov 27, 12:50 pm)29.53 "Hg (Dec 1, 2:20 pm)
Average38 °F71%30.03 "Hg
* Reported Nov 22 10:20 am — Dec 7 10:20 am, Larvik, Weather by CustomWeather, © 2016

Note: Actual official high and low records may vary slightly from our data, if they occured in-between our weather recording intervals... More about our weather records

Advertising

Larvik Weather History for the Previous 24 Hours

Scroll right to see more
 ConditionsComfort  
Time TempWeatherWind HumidityBarometerVisibility
10:20 am
Wed, Dec 7
39 °FDrizzle. Fog.14 mph100%30.07 "Hg3 mi
9:50 am39 °FDrizzle. Fog.13 mph100%30.07 "Hg3 mi
9:20 am39 °FDrizzle. Low clouds.13 mph100%30.09 "Hg3 mi
8:50 am39 °FDrizzle. Fog.12 mph100%30.09 "Hg3 mi
8:20 am39 °FPassing clouds.13 mph100%30.12 "HgN/A
7:50 am37 °FPartly cloudy.14 mph100%30.12 "HgN/A
7:20 am37 °FPartly cloudy.14 mph100%30.15 "HgN/A
6:50 am37 °FPassing clouds.13 mph100%30.15 "HgN/A
6:20 am37 °FPartly cloudy.12 mph100%30.15 "HgN/A
5:50 am37 °FPassing clouds.12 mph100%30.18 "Hg6 mi
5:20 am37 °FLow clouds.10 mph100%30.18 "Hg4 mi
10:50 pm
Tue, Dec 6
34 °FClear.7 mph100%30.33 "Hg10 mi
10:20 pm34 °FClear.8 mph100%30.33 "Hg10 mi
9:50 pm34 °FClear.8 mph100%30.36 "Hg10 mi
9:20 pm34 °FClear.6 mph100%30.36 "Hg10 mi
8:50 pm34 °FClear.7 mph100%30.36 "Hg10 mi
8:20 pm34 °FClear.8 mph100%30.36 "Hg10 mi
7:50 pm34 °FClear.7 mph100%30.39 "Hg10 mi
6:50 pm36 °FClear.7 mph93%30.39 "HgN/A
6:20 pm36 °FClear.7 mph93%30.39 "Hg10 mi
5:50 pm36 °FClear.7 mph93%30.39 "Hg10 mi
5:20 pm36 °FClear.7 mph100%30.39 "Hg10 mi
4:50 pm34 °FClear.6 mph100%30.39 "Hg10 mi
4:20 pm34 °FClear.5 mph93%30.39 "Hg10 mi
3:50 pm32 °FClear.3 mph100%30.39 "Hg10 mi
3:20 pm34 °FSunny.3 mph87%30.39 "Hg10 mi
2:50 pm34 °FSunny.3 mph87%30.39 "Hg10 mi
2:20 pm36 °FSunny.2 mph75%30.39 "Hg10 mi
1:50 pm36 °FSunny.2 mph75%30.39 "Hg10 mi
1:20 pm36 °FSunny.2 mph75%30.39 "Hg10 mi
12:50 pm36 °FSunny.5 mph75%30.39 "Hg10 mi
12:20 pm36 °FSunny.3 mph75%30.39 "Hg10 mi
11:50 am36 °FSunny.3 mph75%30.39 "Hg10 mi
11:20 am37 °FSunny.7 mph70%30.39 "Hg10 mi
Weather by CustomWeather, © 2016

See weather overviewHow to use our weather pages